Flag for Monaco Weather past 2 weeks in Monaco, Monaco

70 °F

Partly sunny.

Feels Like: 70 °F
Forecast: 56 / 72 °F
Wind: 7 mph from East

Location: Nice Airport

Current Time: Oct 6, 2015 at 5:39:52 PM

Latest Report: Oct 6, 2015 at 5:00 PM

Visibility: N/A

Pressure: 29.77 "Hg

Humidity: 73%

Dew point: 61 °F

Location of MonacoLocation

Historic Weather in Monaco — Graph


Monaco temperature yesterday

Maximum temperature yesterday: 72 °F (at 12:00 PM)
Minimum temperature yesterday: 61 °F (at 7:00 AM)
Average temperature yesterday: 66 °F

Past Weeks' High & Low Weather Summary

High77 °F (Sep 23, 1:30 PM)94% (Oct 3, 10:08 PM)30.21 "Hg (Oct 3, 10:08 PM)
Low55 °F (Sep 30, 5:30 AM)29% (Sep 23, 12:00 PM)29.56 "Hg (Sep 23, 9:00 AM)
Average66 °F61%30.01 "Hg
* Reported Sep 21 4:00 PM — Oct 6 4:30 PM, Monaco, Weather by CustomWeather, © 2015

Note: Actual official high and low records may vary slightly from our data, if they occured in-between our weather recording intervals... More about our weather records


Monaco weather history for previous 24 hours

Time TempWeatherWind HumidityBarometerVisibility
4:30 PM
Tue, Oct 6
72 °FPartly sunny.8 mph73%29.77 "HgN/A
4:00 PM72 °FScattered clouds.10 mph69%29.77 "HgN/A
3:30 PM72 °FScattered clouds.9 mph69%29.77 "HgN/A
3:00 PM72 °FScattered clouds.6 mph69%29.77 "HgN/A
2:00 PM70 °FPartly sunny.1 mph73%29.80 "HgN/A
1:30 PM72 °FPartly sunny.5 mph69%29.83 "HgN/A
1:00 PM72 °FScattered clouds.6 mph69%29.83 "HgN/A
12:30 PM72 °FScattered clouds.5 mph69%29.83 "HgN/A
12:00 PM70 °FPartly sunny.5 mph73%29.83 "HgN/A
11:30 AM70 °FPartly sunny.3 mph73%29.83 "HgN/A
11:00 AM70 °FPartly sunny.3 mph73%29.83 "HgN/A
10:30 AM68 °FPartly sunny.No wind78%29.83 "HgN/A
10:00 AM68 °FPartly sunny.No wind73%29.83 "HgN/A
9:30 AM68 °FPartly sunny.No wind78%29.83 "HgN/A
9:00 AM66 °FPartly sunny.2 mph83%29.83 "HgN/A
8:30 AM66 °FPassing clouds.3 mph78%29.83 "HgN/A
8:00 AM66 °FPassing clouds.5 mph78%29.83 "HgN/A
7:30 AM66 °FPassing clouds.3 mph78%29.83 "HgN/A
7:00 AM68 °FPassing clouds.6 mph78%29.86 "HgN/A
6:30 AM68 °FPassing clouds.12 mph78%29.83 "HgN/A
6:00 AM68 °FPassing clouds.12 mph78%29.83 "HgN/A
5:30 AM68 °FPassing clouds.12 mph78%29.83 "HgN/A
5:00 AM68 °FPassing clouds.12 mph78%29.86 "HgN/A
4:30 AM68 °FPassing clouds.3 mph73%29.83 "HgN/A
4:00 AM66 °FPassing clouds.5 mph78%29.86 "HgN/A
3:30 AM68 °FPassing clouds.10 mph73%29.86 "HgN/A
3:00 AM68 °FPassing clouds.18 mph78%29.86 "HgN/A
2:30 AM68 °FPassing clouds.16 mph78%29.89 "HgN/A
2:00 AM68 °FPassing clouds.9 mph78%29.89 "HgN/A
1:30 AM66 °FPassing clouds.7 mph83%29.89 "HgN/A
1:00 AM66 °FPassing clouds.2 mph83%29.89 "HgN/A
12:30 AM66 °FPassing clouds.6 mph83%29.92 "HgN/A
11:30 PM
Mon, Oct 5
66 °FPartly cloudy.5 mph83%29.92 "HgN/A
11:00 PM66 °FLight rain. Partly cloudy.6 mph83%29.92 "HgN/A
10:30 PM68 °FPartly cloudy.3 mph78%29.92 "HgN/A
10:05 PM68 °FPassing clouds.2 mph78%29.92 "HgN/A
9:30 PM68 °FPassing clouds.3 mph78%29.95 "HgN/A
9:00 PM68 °FPassing clouds.5 mph78%29.95 "HgN/A
8:30 PM68 °FPartly cloudy.3 mph78%29.95 "HgN/A
8:00 PM68 °FBroken clouds.5 mph78%29.95 "HgN/A
7:30 PM68 °FBroken clouds.6 mph78%29.95 "HgN/A
7:00 PM68 °FBroken clouds.5 mph78%29.95 "HgN/A
6:30 PM68 °FPartly sunny.6 mph78%29.95 "HgN/A
6:00 PM68 °FPartly sunny.6 mph78%29.95 "HgN/A
5:30 PM68 °FPartly sunny.6 mph78%29.95 "HgN/A
5:00 PM70 °FPartly sunny.6 mph73%29.95 "HgN/A
Weather by CustomWeather, © 2015

See weather overviewHow to use our weather pages